EZY48YV EGPH-EGAA

Flight info

Callsign EZY48YV
Flight time 0h 33m
Altitude 18000
Route GOSAM P600 BLACA DCT BELZU
Aircraft A320/M-SDE3FGHIRWY/LB1

Departure

Time 2026-04-21 18:44
Airport Edinburgh Airport (EGPH)

Arrival

Time 2026-04-21 19:17
Airport Belfast International Airport (EGAA)
Time Latitude Longitude Altitude Speed Heading
2026-04-21 18:12 55.94795 -3.35686 113 ft 0 kts 208°
2026-04-21 18:13 55.94794 -3.35686 114 ft 0 kts 209°
2026-04-21 18:30 55.94798 -3.35683 112 ft 3 kts 209°
2026-04-21 18:30 55.94822 -3.35659 115 ft 4 kts 208°
2026-04-21 18:30 55.94840 -3.35640 112 ft 4 kts 226°
2026-04-21 18:30 55.94850 -3.35603 112 ft 4 kts 279°
2026-04-21 18:31 55.94845 -3.35574 115 ft 0 kts 298°
2026-04-21 18:34 55.94859 -3.35618 114 ft 7 kts 298°
2026-04-21 18:34 55.94881 -3.35691 115 ft 6 kts 299°
2026-04-21 18:34 55.94894 -3.35733 115 ft 6 kts 298°
2026-04-21 18:35 55.94901 -3.35758 115 ft 6 kts 299°
2026-04-21 18:35 55.94921 -3.35816 116 ft 5 kts 306°
2026-04-21 18:35 55.94979 -3.35856 115 ft 8 kts 11°
2026-04-21 18:35 55.95039 -3.35846 116 ft 10 kts 338°
2026-04-21 18:36 55.95065 -3.35904 115 ft 9 kts 300°
2026-04-21 18:36 55.95092 -3.36000 114 ft 8 kts 292°
2026-04-21 18:36 55.95097 -3.36025 116 ft 8 kts 289°
2026-04-21 18:37 55.95108 -3.36080 116 ft 8 kts 289°
2026-04-21 18:37 55.95127 -3.36186 113 ft 12 kts 287°
2026-04-21 18:37 55.95118 -3.36327 116 ft 11 kts 239°
2026-04-21 18:38 55.95075 -3.36455 113 ft 14 kts 239°
2026-04-21 18:38 55.95027 -3.36597 115 ft 14 kts 239°
2026-04-21 18:38 55.94974 -3.36754 113 ft 14 kts 238°
2026-04-21 18:38 55.94923 -3.36902 113 ft 14 kts 238°
2026-04-21 18:39 55.94884 -3.37018 114 ft 15 kts 239°
2026-04-21 18:39 55.94844 -3.37137 114 ft 14 kts 239°
2026-04-21 18:39 55.94795 -3.37281 116 ft 14 kts 239°
2026-04-21 18:40 55.94737 -3.37453 115 ft 19 kts 239°
2026-04-21 18:40 55.94672 -3.37645 115 ft 17 kts 239°
2026-04-21 18:40 55.94611 -3.37825 115 ft 17 kts 239°
2026-04-21 18:40 55.94552 -3.37998 115 ft 16 kts 239°
2026-04-21 18:41 55.94496 -3.38162 115 ft 15 kts 239°
2026-04-21 18:41 55.94445 -3.38315 115 ft 14 kts 239°
2026-04-21 18:41 55.94395 -3.38462 114 ft 13 kts 239°
2026-04-21 18:41 55.94348 -3.38598 115 ft 12 kts 239°
2026-04-21 18:42 55.94305 -3.38725 113 ft 11 kts 239°
2026-04-21 18:42 55.94287 -3.38848 116 ft 10 kts 292°
2026-04-21 18:42 55.94338 -3.38920 114 ft 9 kts 329°
2026-04-21 18:42 55.94400 -3.38964 114 ft 10 kts
2026-04-21 18:43 55.94452 -3.38868 114 ft 12 kts 59°
2026-04-21 18:43 55.94489 -3.38761 113 ft 5 kts 57°
2026-04-21 18:43 55.94494 -3.38747 113 ft 9 kts 59°
2026-04-21 18:43 55.94654 -3.38274 114 ft 83 kts 58°
2026-04-21 18:44 55.95065 -3.37060 116 ft 142 kts 59°
2026-04-21 18:44 55.95590 -3.35541 781 ft 143 kts 59°
2026-04-21 18:44 55.96139 -3.34025 1519 ft 147 kts 58°
2026-04-21 18:44 55.96716 -3.32501 2275 ft 149 kts 58°
2026-04-21 18:45 55.97318 -3.30975 3036 ft 151 kts 58°
2026-04-21 18:45 55.98100 -3.29633 3620 ft 167 kts 34°
2026-04-21 18:45 55.99203 -3.28752 4182 ft 179 kts 28°
2026-04-21 18:45 56.00396 -3.27919 4768 ft 193 kts 20°
2026-04-21 18:46 56.01823 -3.27740 5140 ft 226 kts 356°
2026-04-21 18:46 56.03386 -3.28811 5615 ft 259 kts 328°
2026-04-21 18:46 56.04630 -3.31446 5915 ft 293 kts 297°
2026-04-21 18:46 56.05040 -3.34909 6002 ft 290 kts 265°
2026-04-21 18:47 56.04378 -3.38241 6013 ft 284 kts 231°
2026-04-21 18:47 56.03058 -3.40877 6012 ft 283 kts 225°
2026-04-21 18:47 56.01953 -3.43801 6013 ft 286 kts 244°
2026-04-21 18:47 56.01230 -3.47087 6004 ft 289 kts 251°
2026-04-21 18:48 56.00665 -3.50535 6006 ft 289 kts 254°
2026-04-21 18:48 56.00179 -3.54058 6186 ft 294 kts 256°
2026-04-21 18:48 55.99716 -3.57609 7291 ft 293 kts 256°
2026-04-21 18:48 55.99253 -3.61127 8279 ft 295 kts 256°
2026-04-21 18:49 55.98769 -3.64712 9231 ft 299 kts 255°
2026-04-21 18:49 55.98265 -3.68353 10167 ft 304 kts 255°
2026-04-21 18:49 55.97914 -3.70839 10738 ft 310 kts 254°
2026-04-21 18:49 55.97166 -3.76034 11188 ft 341 kts 254°
2026-04-21 18:50 55.96549 -3.80276 11535 ft 362 kts 254°
2026-04-21 18:50 55.95911 -3.84675 12232 ft 369 kts 254°
2026-04-21 18:50 55.95259 -3.89159 13002 ft 374 kts 254°
2026-04-21 18:50 55.94599 -3.93684 13778 ft 379 kts 254°
2026-04-21 18:51 55.93854 -3.98170 14527 ft 382 kts 246°
2026-04-21 18:51 55.92545 -4.02272 15223 ft 381 kts 230°
2026-04-21 18:51 55.90671 -4.05611 15903 ft 380 kts 213°
2026-04-21 18:51 55.88496 -4.08293 16594 ft 382 kts 210°
2026-04-21 18:52 55.86279 -4.10987 17305 ft 385 kts 212°
2026-04-21 18:52 55.84055 -4.13691 17984 ft 389 kts 211°
2026-04-21 18:52 55.81829 -4.16401 18417 ft 393 kts 212°
2026-04-21 18:52 55.79562 -4.19166 18514 ft 402 kts 212°
2026-04-21 18:53 55.77194 -4.22059 18518 ft 418 kts 211°
2026-04-21 18:53 55.74787 -4.25035 18518 ft 422 kts 212°
2026-04-21 18:53 55.72377 -4.28041 18514 ft 423 kts 212°
2026-04-21 18:53 55.70002 -4.31016 18523 ft 423 kts 212°
2026-04-21 18:54 55.67600 -4.34025 18510 ft 422 kts 213°
2026-04-21 18:54 55.65190 -4.37033 18511 ft 422 kts 212°
2026-04-21 18:54 55.62789 -4.40008 18511 ft 422 kts 212°
2026-04-21 18:54 55.60365 -4.42990 18508 ft 422 kts 211°
2026-04-21 18:55 55.58764 -4.44955 18501 ft 422 kts 212°
2026-04-21 18:55 55.55564 -4.48874 18499 ft 422 kts 212°
2026-04-21 18:55 55.53149 -4.51834 18496 ft 422 kts 212°
2026-04-21 18:55 55.50725 -4.54804 18793 ft 424 kts 213°
2026-04-21 18:56 55.48326 -4.57740 19415 ft 424 kts 212°
2026-04-21 18:56 55.45895 -4.60714 19957 ft 426 kts 213°
2026-04-21 18:56 55.43454 -4.63694 20383 ft 428 kts 212°
2026-04-21 18:56 55.41011 -4.66667 20485 ft 426 kts 212°
2026-04-21 18:57 55.38564 -4.69635 20481 ft 425 kts 212°
2026-04-21 18:57 55.36126 -4.72584 20474 ft 425 kts 213°
2026-04-21 18:57 55.33682 -4.75541 20475 ft 425 kts 212°
2026-04-21 18:57 55.31220 -4.78415 20473 ft 424 kts 208°
2026-04-21 18:58 55.28633 -4.80788 20473 ft 423 kts 205°
2026-04-21 18:58 55.26007 -4.83099 20466 ft 423 kts 204°
2026-04-21 18:58 55.23376 -4.85406 20462 ft 423 kts 205°
2026-04-21 18:58 55.20741 -4.87714 20459 ft 423 kts 205°
2026-04-21 18:59 55.18105 -4.90021 20460 ft 423 kts 205°
2026-04-21 18:59 55.15470 -4.92326 20466 ft 422 kts 205°
2026-04-21 18:59 55.12870 -4.94603 20471 ft 422 kts 205°
2026-04-21 18:59 55.10241 -4.96902 20472 ft 422 kts 205°
2026-04-21 19:00 55.07608 -4.99202 20471 ft 421 kts 205°
2026-04-21 19:00 55.04984 -5.01488 20460 ft 421 kts 205°
2026-04-21 19:00 55.02360 -5.03764 20460 ft 421 kts 204°
2026-04-21 19:00 54.99766 -5.06007 20457 ft 421 kts 205°
2026-04-21 19:01 54.97139 -5.08275 20457 ft 420 kts 205°
2026-04-21 19:01 54.94523 -5.10536 20441 ft 412 kts 205°
2026-04-21 19:01 54.92045 -5.12860 20107 ft 402 kts 211°
2026-04-21 19:01 54.89864 -5.15918 19508 ft 405 kts 223°
2026-04-21 19:02 54.88069 -5.19692 19012 ft 406 kts 233°
2026-04-21 19:02 54.86723 -5.24014 18565 ft 408 kts 245°
2026-04-21 19:02 54.85743 -5.28713 18062 ft 421 kts 249°
2026-04-21 19:02 54.84761 -5.33538 17576 ft 426 kts 248°
2026-04-21 19:03 54.83785 -5.38321 17098 ft 425 kts 249°
2026-04-21 19:03 54.82800 -5.43143 16626 ft 423 kts 248°
2026-04-21 19:03 54.81808 -5.47977 16164 ft 423 kts 248°
2026-04-21 19:03 54.80822 -5.52770 15703 ft 421 kts 249°
2026-04-21 19:04 54.79837 -5.57550 15245 ft 418 kts 248°
2026-04-21 19:04 54.78868 -5.62252 14811 ft 410 kts 248°
2026-04-21 19:04 54.77928 -5.66796 14427 ft 400 kts 249°
2026-04-21 19:04 54.76991 -5.71314 14012 ft 393 kts 248°
2026-04-21 19:05 54.76076 -5.75720 13576 ft 384 kts 248°
2026-04-21 19:05 54.75176 -5.80029 13146 ft 376 kts 248°
2026-04-21 19:05 54.74302 -5.84210 12732 ft 369 kts 248°
2026-04-21 19:05 54.73433 -5.88365 12314 ft 362 kts 248°
2026-04-21 19:06 54.72574 -5.92494 11910 ft 371 kts 248°
2026-04-21 19:06 54.71708 -5.96689 11532 ft 377 kts 249°
2026-04-21 19:06 54.71262 -6.01183 11151 ft 380 kts 269°
2026-04-21 19:06 54.71567 -6.05743 10753 ft 378 kts 278°
2026-04-21 19:07 54.71992 -6.10115 10390 ft 368 kts 278°
2026-04-21 19:07 54.72419 -6.14438 9992 ft 359 kts 278°
2026-04-21 19:07 54.72836 -6.18651 9587 ft 351 kts 278°
2026-04-21 19:07 54.73243 -6.22780 9201 ft 343 kts 278°
2026-04-21 19:08 54.73629 -6.26762 8863 ft 336 kts 278°
2026-04-21 19:08 54.74012 -6.30756 8522 ft 335 kts 278°
2026-04-21 19:08 54.74392 -6.34733 8013 ft 334 kts 278°
2026-04-21 19:08 54.74766 -6.38696 7524 ft 332 kts 278°
2026-04-21 19:09 54.75112 -6.42642 7010 ft 329 kts 274°
2026-04-21 19:09 54.74879 -6.46487 6522 ft 323 kts 252°
2026-04-21 19:09 54.74201 -6.50173 6045 ft 319 kts 248°
2026-04-21 19:09 54.73502 -6.53811 5546 ft 316 kts 249°
2026-04-21 19:10 54.72807 -6.57403 5058 ft 313 kts 249°
2026-04-21 19:10 54.71969 -6.60797 4555 ft 306 kts 232°
2026-04-21 19:10 54.70492 -6.63298 4060 ft 292 kts 205°
2026-04-21 19:10 54.68625 -6.64369 3572 ft 276 kts 178°
2026-04-21 19:11 54.66736 -6.64257 3058 ft 269 kts 169°
2026-04-21 19:11 54.64897 -6.63964 2607 ft 266 kts 168°
2026-04-21 19:11 54.63110 -6.63687 2507 ft 249 kts 167°
2026-04-21 19:11 54.61586 -6.62837 2515 ft 216 kts 139°
2026-04-21 19:12 54.60900 -6.61666 2519 ft 198 kts 123°
2026-04-21 19:12 54.59900 -6.59136 2520 ft 194 kts 119°
2026-04-21 19:12 54.59172 -6.57151 2519 ft 196 kts 118°
2026-04-21 19:12 54.58581 -6.55078 2512 ft 195 kts 110°
2026-04-21 19:13 54.58080 -6.52895 2518 ft 195 kts 109°
2026-04-21 19:13 54.57857 -6.50630 2515 ft 194 kts 80°
2026-04-21 19:13 54.58392 -6.48483 2516 ft 200 kts 67°
2026-04-21 19:13 54.59023 -6.46285 2516 ft 207 kts 68°
2026-04-21 19:14 54.59652 -6.44033 2514 ft 207 kts 68°
2026-04-21 19:14 54.60275 -6.41779 2507 ft 208 kts 68°
2026-04-21 19:14 54.60899 -6.39505 2227 ft 208 kts 68°
2026-04-21 19:14 54.61500 -6.37308 1939 ft 197 kts 68°
2026-04-21 19:15 54.62057 -6.35263 1684 ft 183 kts 68°
2026-04-21 19:15 54.62579 -6.33346 1444 ft 170 kts 69°
2026-04-21 19:15 54.63064 -6.31560 1258 ft 157 kts 67°
2026-04-21 19:15 54.63506 -6.29930 1028 ft 143 kts 68°
2026-04-21 19:16 54.63905 -6.28456 854 ft 132 kts 70°
2026-04-21 19:16 54.64284 -6.27059 692 ft 124 kts 67°
2026-04-21 19:16 54.64654 -6.25696 583 ft 125 kts 69°
2026-04-21 19:16 54.65014 -6.24341 462 ft 123 kts 69°
2026-04-21 19:17 54.65703 -6.21755 272 ft 92 kts 65°
2026-04-21 19:17 54.65927 -6.20923 274 ft 64 kts 66°
2026-04-21 19:17 54.66088 -6.20320 273 ft 48 kts 65°
2026-04-21 19:18 54.66207 -6.19880 274 ft 31 kts 64°
2026-04-21 19:18 54.66272 -6.19676 272 ft 12 kts 34°
2026-04-21 19:18 54.66353 -6.19710 272 ft 12 kts 327°
2026-04-21 19:18 54.66395 -6.19820 272 ft 11 kts 277°
2026-04-21 19:19 54.66374 -6.19939 272 ft 10 kts 246°
2026-04-21 19:19 54.66347 -6.20043 272 ft 9 kts 245°
2026-04-21 19:19 54.66321 -6.20141 275 ft 9 kts 245°
2026-04-21 19:19 54.66296 -6.20233 272 ft 9 kts 245°
2026-04-21 19:20 54.66271 -6.20324 272 ft 8 kts 245°
2026-04-21 19:20 54.66248 -6.20409 274 ft 8 kts 244°
2026-04-21 19:20 54.66217 -6.20522 272 ft 12 kts 245°
2026-04-21 19:20 54.66180 -6.20662 272 ft 14 kts 245°
2026-04-21 19:21 54.66137 -6.20819 272 ft 15 kts 245°
2026-04-21 19:21 54.66109 -6.20925 276 ft 14 kts 245°
2026-04-21 19:21 54.66056 -6.21122 272 ft 11 kts 245°
2026-04-21 19:21 54.66058 -6.21192 272 ft 7 kts 296°
2026-04-21 19:22 54.66119 -6.21256 274 ft 8 kts 334°
2026-04-21 19:22 54.66159 -6.21306 272 ft 6 kts 292°
2026-04-21 19:22 54.66149 -6.21366 274 ft 2 kts 246°
2026-04-21 19:22 54.66145 -6.21380 272 ft 0 kts 245°